Flag for U.S.A. Weather past 2 weeks in Palm Springs, California, U.S.A.

Now
53 °F

Clear.


Feels Like: 53 °F
Forecast: 45 / 61 °F
Wind: No wind

Location: Palm Springs Regional Airport

Current Time: Dec 25, 2014 at 6:29:05 AM

Latest Report: Dec 25, 2014 at 5:53 AM


Visibility: 10 mi

Pressure: 29.73 "Hg

Humidity: 51%

Dew point: 35 °F

Location of Palm SpringsLocation

Historic Weather in Palm Springs — Graph

°F

Palm Springs temperature yesterday

Maximum temperature yesterday: 68 °F (at 1:53 PM)
Minimum temperature yesterday: 48 °F (at 4:53 AM)
Average temperature yesterday: 58 °F

Past Weeks' High & Low Weather Summary

 TemperatureHumidityPressure
High81 °F (Dec 23, 12:53 PM)97% (Dec 12, 9:53 AM)30.27 "Hg (Dec 12, 9:53 AM)
Low48 °F (Dec 16, 4:53 AM)15% (Dec 24, 1:53 PM)29.69 "Hg (Dec 25, 3:53 AM)
Average59 °F55%30.06 "Hg
* Reported Dec 10 4:53 AM — Dec 25 4:53 AM, Palm Springs, Weather by CustomWeather, © 2014

Note: Actual official high and low records may vary slightly from our data, if they occured in-between our weather recording intervals... More about our weather records

Advertising

Palm Springs weather history for previous 24 hours

 ConditionsComfort  
Time TempWeatherWind HumidityBarometerVisibility
4:53 AM
Dec 25
51 °FClear.6 mph52%29.71 "Hg10 mi
3:53 AM52 °FClear.5 mph43%29.69 "Hg10 mi
2:53 AM52 °FClear.7 mph37%29.69 "Hg10 mi
1:53 AM50 °FClear.3 mph44%29.70 "Hg10 mi
12:53 AM50 °FClear.No wind41%29.72 "Hg10 mi
11:53 PM
Dec 24
51 °FClear.No wind39%29.75 "Hg10 mi
10:53 PM53 °FClear.5 mph30%29.78 "Hg10 mi
9:53 PM52 °FClear.5 mph40%29.81 "Hg10 mi
8:53 PM55 °FClear.6 mph37%29.84 "Hg10 mi
7:53 PM54 °FClear.No wind38%29.85 "Hg10 mi
6:53 PM57 °FClear.6 mph28%29.85 "Hg10 mi
5:53 PM61 °FClear.5 mph23%29.90 "Hg10 mi
4:53 PM63 °FClear.5 mph22%29.92 "Hg10 mi
3:53 PM66 °FPartly sunny.8 mph19%29.96 "Hg10 mi
2:53 PM68 °FScattered clouds.7 mph15%29.96 "Hg10 mi
1:53 PM68 °FSunny.7 mph15%29.98 "Hg10 mi
12:53 PM67 °FSunny.5 mph18%30.01 "Hg10 mi
11:53 AM67 °FSunny.6 mph20%30.05 "Hg10 mi
10:53 AM67 °FSunny.No wind20%30.11 "Hg10 mi
9:53 AM65 °FSunny.No wind25%30.13 "Hg10 mi
8:53 AM61 °FSunny.No wind34%30.15 "Hg10 mi
7:53 AM52 °FSunny.6 mph50%30.16 "Hg10 mi
6:53 AM49 °FSunny.5 mph57%30.17 "Hg10 mi
Weather by CustomWeather, © 2014

See weather overviewHow to use our weather pages